Location: Waco, TX
(31.5480°N, 97.1670°W)
Time: 13:50:03

ISS - Pass Details

Date: 19 March 2018
Orbit: 403 x 406 km, 51.6° (Epoch: 21 March)

Event Time Altitude Azimuth Distance (km) Brightness Sun altitude
Rises 07:32:46 0° 299° (WNW) 2,319 -0.5 -1.0°
Reaches altitude 10° 07:35:11 10° 283° (WNW) 1,456 -1.6 -0.5°
Maximum altitude 07:37:42 21° 232° (SW) 973 -2.3 0.0°
Drops below altitude 10° 07:40:13 10° 181° (S) 1,448 -1.0 0.6°
Sets 07:42:36 0° 164° (SSE) 2,302 0.2 1.1°
